Location: Unspecified
(47.6578°N, 23.5640°E)
Time: 22:06:20
(UTC+02:00)

ISS - Pass Details

Date: 11 December 2017
Orbit: 402 x 407 km, 51.6° (Epoch: 13 December)

Event Time Altitude Azimuth Distance (km) Brightness Sun altitude
Rises 17:35:28 0° 290° (WNW) 2,332 0.8 -9.9°
Reaches altitude 10° 17:37:36 10° 296° (WNW) 1,469 -0.4 -10.2°
Maximum altitude 17:40:48 49° 13° (NNE) 537 -3.5 -10.7°
Enters shadow 17:43:07 17° 84° (E) 1,123 -2.2 -11.1°
